#timestamp,LO_Frequency,Hit 
1505048415.7,286047002.4,N
1505048435.5,286046999.7,N
1505048455.4,286047001.6,N
1505048475.2,286046998.1,N
1505048495.0,286047002.6,N
1505048495.9,286047002.6,N
1505048515.8,286047002.4,N
1505048535.6,286047004.3,N
1505048555.4,286047001.3,N
1505048575.3,286047005.4,N
1505048595.1,286047003.6,N
1505048596.0,286047003.6,N
1505048615.8,286047001.7,N
1505048635.7,286047003.2,N
1505048655.5,286047004.2,N
1505048675.3,286046999.9,N
1505048695.2,286047001.3,N
1505048715.9,286047003.0,N
1505048735.7,286047005.0,N
1505048755.5,286047003.7,N
1505048775.4,286047004.4,N
1505048795.2,286047003.6,N
1505048815.0,286047002.7,N
1505048815.9,286047002.7,N
1505048835.8,286047001.6,N
1505048855.6,286047001.8,N
1505048875.4,286047000.9,N
1505048895.3,286047000.2,N
1505048915.1,286047005.3,P
1505048935.8,286047000.4,N
1505048955.7,286046999.4,N
1505048975.5,286046998.9,N
1505048995.3,286046997.7,N
1505049015.2,286046995.9,N
1505049035.0,286046999.6,N
1505049035.9,286046999.6,N
1505049055.7,286047000.0,N
1505049075.6,286047002.8,N
1505049095.4,286047000.9,N
1505049115.2,286046998.0,N
1505049135.1,286046997.8,N
1505049136.0,286046997.8,N
1505049155.8,286046995.6,N
1505049175.6,286046995.7,N
1505049195.5,286046996.9,N
1505049215.3,286047000.0,N
1505049235.1,286047002.5,N
1505049255.9,286047000.7,N
1505049275.7,286047000.5,N
1505049295.5,286046998.8,N
1505049315.3,286046998.7,N
1505049335.2,286046999.4,N
1505049355.0,286047002.7,N
1505049355.9,286047002.7,N
1505049375.7,286046998.7,N
1505049395.6,286046995.8,N
1505049415.4,286046998.8,N
1505049435.2,286046996.8,N
1505049455.1,286046999.1,N
1505049456.0,286046999.1,N
1505049475.8,286047001.1,N
1505049495.6,286046998.3,N
1505049515.5,286047001.7,N
1505049535.3,286046999.9,N
1505049555.1,286046997.0,N
1505049575.9,286046997.6,N
1505049595.7,286046993.7,P
1505049615.5,286046991.0,P
1505049635.4,286046989.4,P
1505049655.2,286046990.3,N
1505049675.0,286046994.4,N
1505049675.9,286046994.4,N
1505049695.8,286046992.8,N
1505049715.6,286046992.2,N
1505049735.4,286046991.7,P
1505049755.3,286046999.8,N
1505049775.1,286047002.0,N
1505049776.0,286047002.0,N
1505049795.8,286047004.3,N
1505049815.7,286047003.1,N
1505049835.5,286047005.3,N
1505049855.3,286047004.4,N
1505049875.2,286047001.6,N
1505049895.9,286047004.8,N
1505049915.7,286047006.6,N
1505049935.6,286047003.5,N
1505049955.4,286047002.9,N
1505049975.2,286047003.2,N
1505049995.0,286047002.6,N
1505049995.9,286047002.6,N
1505050015.8,286047002.2,N
1505050035.6,286047003.2,N
1505050055.4,286047006.0,N
1505050075.3,286047003.0,N
1505050095.1,286047003.3,N
1505050096.0,286047003.3,N
1505050115.8,286047004.1,N
1505050135.7,286047000.6,N
1505050155.5,286046998.9,N
1505050175.3,286046999.4,N
1505050195.2,286046997.3,N
1505050215.9,286046997.8,N
1505050235.7,286046999.6,N
1505050255.6,286046998.9,N
1505050275.4,286047000.0,N
1505050295.2,286047001.8,N
1505050315.0,286047002.5,N
1505050316.0,286047002.5,N
1505050335.8,286047000.1,N
1505050355.6,286047001.2,N
1505050375.4,286046999.9,N
1505050395.3,286047002.1,N
1505050415.1,286047002.3,N
1505050435.8,286047004.2,N
1505050455.7,286047003.4,N
1505050475.5,286047002.5,N
1505050495.3,286047004.0,N
1505050515.2,286046999.9,N
1505050535.9,286047001.0,N
1505050555.7,286047000.2,N
1505050575.6,286047000.8,N
1505050595.4,286047001.1,N
1505050615.2,286047000.5,N
1505050635.1,286047002.8,N
1505050636.0,286047002.8,N
1505050655.8,286047000.1,N
1505050675.6,286047000.2,N
1505050695.5,286047002.2,N
1505050715.3,286047000.6,N
1505050735.1,286046998.8,N
1505050755.8,286047001.2,N
1505050775.7,286046997.9,N
1505050795.5,286046995.4,P
1505050815.4,286046998.5,N
1505050835.2,286047002.1,N
1505050855.0,286046999.8,N
1505050855.9,286046999.8,N
1505050875.7,286046998.9,N
1505050895.6,286046996.7,N
1505050915.4,286046993.4,P
1505050935.3,286046996.5,N
1505050955.1,286047004.4,N
1505050956.0,286047004.4,N
1505050975.8,286047001.5,N
1505050995.6,286047008.8,N
1505051015.5,286047005.2,N
1505051035.3,286047004.6,N
1505051055.1,286047003.6,N
1505051075.9,286047006.0,N
1505051095.7,286047004.9,N
1505051115.5,286047002.9,N
1505051135.4,286047008.0,N
1505051155.2,286047006.5,N
1505051175.0,286047005.7,N
1505051175.9,286047005.7,N
1505051195.8,286047003.2,N
1505051215.6,286047003.0,N
1505051235.4,286047003.3,N
1505051255.3,286047003.2,N
1505051275.1,286047006.0,N
1505051276.0,286047006.0,N
1505051295.8,286047004.7,N
1505051315.7,286047003.0,N
1505051335.5,286047005.5,N
1505051355.3,286047004.7,N
1505051375.1,286047005.1,N
1505051395.9,286047001.3,N
1505051415.7,286047000.2,N
1505051435.5,286046999.2,N
1505051455.4,286047004.3,N
1505051475.2,286047001.7,N
1505051495.0,286047004.2,N
1505051495.9,286047004.2,N
1505051515.8,286047003.6,N
1505051535.6,286047004.6,N
1505051555.4,286047003.3,N
1505051575.3,286047002.3,N
1505051595.1,286047002.1,N
1505051596.0,286047002.1,N
1505051615.8,286047000.4,N
1505051635.7,286047000.3,N
1505051655.5,286047001.2,N
1505051675.3,286047000.6,N
1505051695.2,286047000.2,N
1505051715.9,286047003.9,N
1505051735.7,286047004.0,N
1505051755.5,286047003.8,N
1505051775.4,286047002.5,N
1505051795.2,286047000.6,N
1505051815.0,286046998.2,N
1505051815.9,286046998.2,N
1505051835.8,286047001.2,N
1505051855.6,286047000.6,N
1505051875.4,286046999.2,N
1505051895.3,286046998.2,N
1505051915.1,286046999.8,N
1505051935.8,286047001.2,N
1505051955.7,286046997.5,N
1505051975.5,286046998.3,N
1505051995.3,286046999.9,N
